Location: Góry Miechowskie
(50.3599°N, 20.1803°E)
Time: 14:36:14
(UTC+00:00)

Transit 4A - All Passes

Search period start: 13 September 2024 00:00
Search period end: 23 September 2024 00:00
Orbit: 866 x 976 km, 66.8° (Epoch: 12 September)

Date Brightness Start Highest point End Pass type
(mag) Time Alt. Az. Time Alt. Az. Time Alt. Az.
13 Sep - 01:03:08 10° SSE 01:07:39 24° ESE 01:12:15 10° ENE visible
13 Sep - 02:47:29 10° SW 02:53:22 76° NW 02:59:26 10° NE visible
13 Sep - 04:35:49 10° W 04:40:42 26° NNW 04:45:42 10° NNE daylight
13 Sep - 06:25:26 10° NW 06:29:15 17° N 06:33:08 10° NE daylight
13 Sep - 08:12:52 10° NNW 08:17:51 25° NNE 08:22:55 10° E daylight
13 Sep - 09:59:05 10° NW 10:05:16 70° NE 10:11:35 10° SE daylight
13 Sep - 11:45:59 10° NW 11:51:12 29° WSW 11:56:30 10° SSW daylight
14 Sep - 01:11:13 10° S 01:16:22 33° ESE 01:21:39 10° NE visible
14 Sep - 02:56:38 10° SW 03:02:26 58° NW 03:08:25 10° NNE visible
14 Sep - 04:45:31 10° WNW 04:50:05 22° NNW 04:54:45 10° NNE daylight
14 Sep - 06:34:53 10° NW 06:38:46 17° N 06:42:43 10° NE daylight
14 Sep - 08:21:52 10° NNW 08:27:11 29° NNE 08:32:37 10° E daylight
14 Sep - 10:08:05 10° NW 10:14:19 90° SW 10:20:40 10° SE daylight
14 Sep - 11:55:30 10° WNW 11:59:55 21° WSW 12:04:23 10° SSW daylight
15 Sep - 01:19:36 10° S 01:25:10 47° ESE 01:30:53 10° NE visible
15 Sep - 03:05:57 10° WSW 03:11:34 44° NW 03:17:23 10° NNE visible
15 Sep - 04:55:15 10° WNW 04:59:31 20° NNW 05:03:52 10° NNE daylight
15 Sep - 06:44:10 10° NNW 06:48:16 18° NNE 06:52:26 10° NE daylight
15 Sep - 08:30:49 10° NNW 08:36:28 36° NE 08:42:14 10° ESE daylight
15 Sep - 10:17:06 10° NW 10:23:16 68° WSW 10:29:33 10° SSE daylight
15 Sep - 12:05:27 10° WNW 12:08:33 14° WSW 12:11:40 10° SW daylight
15 Sep - 23:46:39 10° ESE 23:48:54 12° E 23:51:09 10° ENE visible
16 Sep - 01:28:15 10° SSW 01:34:01 65° ESE 01:40:00 10° NE visible
16 Sep - 03:15:23 10° WSW 03:20:47 35° NW 03:26:21 10° NNE visible
16 Sep - 05:04:58 10° NW 05:08:59 18° N 05:13:06 10° NNE daylight
16 Sep - 06:53:21 10° NNW 06:57:45 20° NNE 07:02:12 10° ENE daylight
16 Sep - 08:39:46 10° NNW 08:45:41 45° NE 08:51:43 10° ESE daylight
16 Sep - 10:26:12 10° NW 10:32:10 50° WSW 10:38:13 10° S daylight
16 Sep - 23:53:38 10° SSE 23:57:30 18° ESE 00:01:25 10° ENE visible
17 Sep - 01:37:05 10° SSW 01:42:58 88° SE 01:49:03 10° NE visible
17 Sep - 03:24:56 10° W 03:30:04 29° NNW 03:35:20 10° NNE visible
17 Sep - 05:14:37 10° NW 05:18:30 17° N 05:22:26 10° NE daylight
17 Sep - 07:02:26 10° NNW 07:07:11 22° NNE 07:12:00 10° ENE daylight
17 Sep - 08:48:42 10° NNW 08:54:50 58° NE 09:01:04 10° SE daylight
17 Sep - 10:35:22 10° NW 10:40:59 36° WSW 10:46:40 10° S daylight
18 Sep - 00:01:25 10° SSE 00:06:10 26° ESE 00:11:01 10° NE visible
18 Sep - 01:46:06 10° SW 01:51:58 70° NW 01:58:03 10° NE visible
18 Sep - 03:34:36 10° W 03:39:25 24° NNW 03:44:20 10° NNE visible
18 Sep - 05:24:09 10° NW 05:28:01 17° N 05:31:55 10° NE daylight
18 Sep - 07:11:27 10° NNW 07:16:33 26° NNE 07:21:45 10° E daylight
18 Sep - 08:57:40 10° NW 09:03:54 75° NE 09:10:15 10° SE daylight
18 Sep - 10:44:42 10° NW 10:49:44 26° WSW 10:54:51 10° SSW daylight
19 Sep - 00:09:35 10° S 00:14:54 37° ESE 00:20:21 10° NE visible
19 Sep - 01:55:18 10° WSW 02:01:04 53° NW 02:07:01 10° NNE visible
19 Sep - 03:44:19 10° WNW 03:48:48 21° NNW 03:53:24 10° NNE visible
19 Sep - 05:33:33 10° NNW 05:37:31 17° N 05:41:33 10° NE daylight
19 Sep - 07:20:26 10° NNW 07:25:53 31° NNE 07:31:25 10° E daylight
19 Sep - 09:06:40 10° NW 09:12:55 83° SW 09:19:16 10° SSE daylight
19 Sep - 10:54:18 10° WNW 10:58:25 19° WSW 11:02:35 10° SW daylight
20 Sep - 00:18:04 10° SSW 00:23:42 51° ESE 00:29:31 10° NE visible
20 Sep - 02:04:38 10° WSW 02:10:13 42° NW 02:15:59 10° NNE visible
20 Sep - 03:54:02 10° WNW 03:58:15 19° NNW 04:02:32 10° NNE daylight
20 Sep - 05:42:49 10° NNW 05:47:00 19° NNE 05:51:16 10° ENE daylight
20 Sep - 07:29:23 10° NNW 07:35:09 38° NE 07:41:00 10° ESE daylight
20 Sep - 09:15:43 10° NW 09:21:51 62° WSW 09:28:06 10° SSE daylight
20 Sep - 11:04:30 10° WNW 11:07:02 13° W 11:09:34 10° SW daylight
20 Sep - 22:44:29 10° SE 22:47:22 14° ESE 22:50:16 10° ENE visible
21 Sep - 00:26:44 10° SSW 00:32:35 71° ESE 00:38:37 10° NE visible
21 Sep - 02:14:06 10° W 02:19:27 33° NW 02:24:57 10° NNE visible
21 Sep - 04:03:45 10° NW 04:07:44 18° N 04:11:47 10° NNE daylight
21 Sep - 05:51:57 10° NNW 05:56:28 21° NNE 06:01:03 10° ENE daylight
21 Sep - 07:38:20 10° NNW 07:44:20 48° NE 07:50:27 10° ESE daylight
21 Sep - 09:24:49 10° NW 09:30:43 45° WSW 09:36:42 10° S daylight
21 Sep - 22:51:48 10° SSE 22:55:58 20° ESE 23:00:13 10° ENE visible
22 Sep - 00:35:39 10° SW 00:41:32 86° NW 00:47:39 10° NE visible
22 Sep - 02:23:41 10° W 02:28:44 28° NNW 02:33:55 10° NNE visible
22 Sep - 04:13:22 10° NW 04:17:14 17° N 04:21:10 10° NE daylight
22 Sep - 06:01:01 10° NNW 06:05:53 23° NNE 06:10:50 10° ENE daylight
22 Sep - 07:47:17 10° NNW 07:53:27 62° NE 07:59:44 10° SE daylight
22 Sep - 09:34:02 10° NW 09:39:31 33° WSW 09:45:04 10° S daylight
22 Sep - 22:59:42 10° SSE 23:04:39 29° ESE 23:09:44 10° NE visible
